{"data":{"norad_id":65603,"intl_designator":"2025-207M","name":"STARLINK-35250","alt_names":[],"object_type":"PAYLOAD","status":"ACTIVE","operator":null,"country":"US","launch_date":"2025-09-13","launch_site_code":"AFWTR","launch_vehicle":null,"mission":null,"orbit_class":"UNKNOWN","rcs_meters":null,"size_class":null,"mass_kg":null,"dimensions":null,"purposes":["comms"],"wikipedia_slug":null,"has_3d_model":false,"image_url":null,"decayed_at":null,"tle_current":{"epoch":"2026-09-20T22:00:03.000096Z","epoch_age_seconds":76244,"freshness":"FRESH","line1":"1 65603U 25207M   26263.91670139 -.00008242  00000+0 -25307-3 0  9998","line2":"2 65603  97.2854 326.4943 0001830  94.7254 320.7311 15.33466783  5795","mean_motion":15.33466783,"eccentricity":0.000183,"inclination_deg":97.2854,"raan_deg":326.4943,"arg_perigee_deg":94.7254,"mean_anomaly_deg":320.7311,"bstar":-0.00025307,"rev_number":579,"period_min":93.904870712808,"perigee_km":464.2259827513,"apogee_km":466.73074597466,"semimajor_km":6843.615364363,"source":"CELESTRAK","updated_at":"2026-09-21T09:00:35.655168Z"}}}